Blackpool, United Kingdom

8:01 AM BST on April 27, 2018 (GMT +0100)
Blackpool

Weather History for EGNH - January, 2014

Change the Weather History Date:

Sunday, January 12, 2014

  Actual Average Record
Temperature  
Mean Temperature 38 °F -  
Max Temperature 45 °F 43 °F 53 °F (2007)
Min Temperature 31 °F 36 °F 31 °F (2013)
Degree Days  
Heating Degree Days 28    
Moisture  
Dew Point 37 °F    
Average Humidity 90    
Maximum Humidity 100    
Minimum Humidity 76    
Precipitation  
Precipitation 0.02 in - - ()
Sea Level Pressure  
Sea Level Pressure 29.83 in    
Wind  
Wind Speed 14 mph ()    
Max Wind Speed 24 mph    
Max Gust Speed -    
Visibility 5.6 miles    
Events Rain    
Averages and records for this station are not official NWS values.
T = Trace of Precipitation, MM = Missing Value Source: Averaged Metar Reports

Daily Weather History Graph

Daily Weather History Graph

Search for Another Location

Airport or City:

Astronomy

Jan. 12, 2014 Rise Set
Actual Time 8:24 AM GMT 4:16 PM GMT
Civil Twilight 7:42 AM GMT 4:58 PM GMT
Nautical Twilight 6:57 AM GMT 5:43 PM GMT
Astronomical Twilight 6:15 AM GMT 6:25 PM GMT
Moon 1:38 PM GMT (1/12) 5:05 AM GMT (1/12)
Length of Visible Light 9h 16m
Length of Day
7h 52m
Waxing Gibbous, 88% of the Moon is Illuminated
Jan 12
Waxing Gibbous
Jan 16
Full
Jan 24
Last Quarter
Jan 30
New
Feb 6
First Quarter

Hourly Weather History & Observations

Time (GMT) Temp. Windchill Dew Point Humidity Pressure Visibility Wind Dir Wind Speed Gust Speed Precip Events Conditions
12:00 AM 34 °F - 32 °F 90%  in - ESE 6.9 mph - -  
1:00 AM 33 °F - 31 °F 91%  in - ESE 6.9 mph - -  
2:00 AM 32 °F - 30 °F 91%  in - ESE 9.2 mph - -  
3:00 AM 33 °F - 32 °F 92%  in - ESE 11.5 mph - -  
4:00 AM 34 °F - 32 °F 90%  in - ESE 13.8 mph - -  
5:00 AM 35 °F - 33 °F 87%  in - SE 12.7 mph - -  
6:00 AM 35 °F - 32 °F 86%  in - SE 11.5 mph - -  
6:20 AM 33.8 °F 24.8 °F 33.8 °F 100% 30.06 in - SE 12.7 mph - N/A   Clear
6:50 AM 35.6 °F 25.9 °F 33.8 °F 93% 30.06 in - SE 16.1 mph - N/A   Clear
7:00 AM 35 °F - 32 °F 85%  in - SE 18.4 mph - -  
7:20 AM 35.6 °F 25.5 °F 33.8 °F 93% 30.06 in - ESE 17.3 mph - N/A   Clear
7:50 AM 33.8 °F 24.8 °F 32.0 °F 93% 30.04 in - ESE 12.7 mph - N/A   Clear
8:00 AM 35 °F - 32 °F 83%  in - ESE 12.7 mph - -  
8:20 AM 35.6 °F 25.2 °F 32.0 °F 87% 30.01 in - ESE 18.4 mph - N/A   Clear
8:50 AM 35.6 °F 24.5 °F 33.8 °F 93% 30.01 in - ESE 20.7 mph - N/A   Clear
9:00 AM 35 °F - 32 °F 86%  in - ESE 20.7 mph - -  
9:50 AM 35.6 °F 26.2 °F 33.8 °F 93% 30.01 in 6.2 mi ESE 15.0 mph - N/A   Partly Cloudy
10:00 AM 36 °F - 33 °F 87%  in - SE 15.0 mph - -  
10:20 AM 37.4 °F 27.2 °F 35.6 °F 93% 29.98 in - ESE 19.6 mph - N/A   Clear
10:50 AM 37.4 °F 27.5 °F 35.6 °F 93% 29.95 in 6.2 mi ESE 18.4 mph - N/A   Partly Cloudy
11:00 AM 37 °F - 35 °F 87%  in - SE 19.6 mph - -  
11:20 AM 37.4 °F 28.5 °F 35.6 °F 93% 29.95 in - SE 15.0 mph - N/A   Clear
11:50 AM 39.2 °F 30.2 °F 35.6 °F 87% 29.92 in - ESE 17.3 mph - N/A   Clear
12:00 PM 38 °F - 35 °F 85%  in - SE 18.4 mph - -  
12:20 PM 39.2 °F 29.6 °F 35.6 °F 87% 29.89 in 6.2 mi ESE 19.6 mph - N/A   Partly Cloudy
12:50 PM 39.2 °F 29.6 °F 35.6 °F 87% 29.86 in 6.2 mi ESE 19.6 mph - N/A   Scattered Clouds
1:00 PM 40 °F - 35 °F 76%  in - SE 19.6 mph - -  
1:20 PM 41.0 °F 31.6 °F 35.6 °F 81% 29.83 in 6.2 mi ESE 20.7 mph - N/A   Mostly Cloudy
1:50 PM 41.0 °F 32.2 °F 37.4 °F 87% 29.80 in 6.2 mi ESE 18.4 mph - N/A   Mostly Cloudy
2:00 PM 40 °F - 36 °F 81%  in - SE 18.4 mph - -  
2:20 PM 41.0 °F 34.3 °F 37.4 °F 87% 29.80 in 6.2 mi ESE 11.5 mph - N/A   Mostly Cloudy
2:50 PM 41.0 °F 32.5 °F 37.4 °F 87% 29.77 in 6.2 mi SE 17.3 mph - N/A   Overcast
3:00 PM 41 °F - 38 °F 83%  in - SE 18.4 mph - -  
3:20 PM 41.0 °F 32.2 °F 39.2 °F 93% 29.74 in 6.2 mi SE 18.4 mph - N/A   Mostly Cloudy
3:50 PM 42.8 °F 34.5 °F 39.2 °F 87% 29.74 in 6.2 mi SE 18.4 mph - N/A   Mostly Cloudy
4:00 PM 42 °F - 39 °F 84%  in - SE 20.7 mph - -  
4:20 PM 42.8 °F 34.8 °F 39.2 °F 87% 29.71 in 5.6 mi ESE 17.3 mph - N/A   Mostly Cloudy
4:50 PM 42.8 °F 34.8 °F 41.0 °F 93% 29.68 in 5.6 mi ESE 17.3 mph - N/A   Mostly Cloudy
5:00 PM 42 °F - 40 °F 88%  in - SE 16.1 mph - -  
5:20 PM 42.8 °F 34.5 °F 41.0 °F 93% 29.68 in 5.6 mi ESE 18.4 mph - N/A Rain Light Rain
5:50 PM 42.8 °F 35.1 °F 41.0 °F 93% 29.65 in 5.6 mi ESE 16.1 mph - N/A Rain Light Rain
6:00 PM 42 °F - 40 °F 89%  in - SE 19.6 mph - -  
6:20 PM 42.8 °F 34.0 °F 41.0 °F 93% 29.62 in 3.7 mi ESE 20.7 mph - N/A Rain Light Rain
6:50 PM 42.8 °F 33.3 °F 41.0 °F 93% 29.62 in 5.0 mi ESE 24.2 mph - N/A   Mostly Cloudy
7:00 PM 42 °F - 40 °F 91%  in - SE 24.2 mph - -  
7:20 PM 42.8 °F 34.0 °F 41.0 °F 93% 29.59 in 5.0 mi ESE 20.7 mph - N/A Rain Light Rain Showers
8:00 PM 43 °F - 41 °F 92%  in - SE 17.3 mph - -  
8:20 PM 42.8 °F 35.4 °F 42.8 °F 100% 29.56 in 5.0 mi SE 15.0 mph - N/A Rain Light Rain Showers
8:50 PM 42.8 °F 34.5 °F 42.8 °F 100% 29.56 in 3.7 mi SE 18.4 mph - N/A Rain Rain
9:00 PM 43 °F - 42 °F 95%  in - SE 19.6 mph - -  
10:00 PM 44 °F - 43 °F 94%  in - SSE 20.7 mph - -  
11:00 PM 45 °F - 43 °F 92%  in - SW 18.4 mph - -